Weather History for KDRO - August, 2014

Change the Weather History Date:

Wednesday, August 6, 2014

  Actual Average Record
Temperature  
Mean Temperature 67 °F 69 °F  
Max Temperature 86 °F 84 °F 97 °F (1981)
Min Temperature 48 °F 54 °F 42 °F (1976)
Degree Days  
Heating Degree Days 0 0  
Month to date heating degree days 0 0  
Since 1 June heating degree days 88 125  
Since 1 July heating degree days 0 10  
Cooling Degree Days 2 4  
Month to date cooling degree days 17 25  
Year to date cooling degree days 241 176  
Since 1 June cooling degree days 236 175  
Growing Degree Days 16 (Base 50)    
Moisture  
Dew Point 40 °F    
Average Humidity 50    
Maximum Humidity 86    
Minimum Humidity 14    
Precipitation  
Precipitation 0.00 in 0.08 in 0.89 in (1988)
Month to date precipitation 0.93 0.51  
Year to date precipitation 4.63 8.30  
Sea Level Pressure  
Sea Level Pressure 30.00 in    
Wind  
Wind Speed 5 mph (WNW)    
Max Wind Speed 17 mph    
Max Gust Speed 23 mph    
Visibility 10 miles    
Events      
T = Trace of Precipitation, MM = Missing Value Source: NWS Daily Summary

Daily Weather History Graph

Daily Weather History Graph

Search for Another Location

Airport or City:

Trip Planner

Search our weather history database for the weather conditions in past years. The results will help you decide how hot, cold, wet, or windy it might be!

Date:

Astronomy

Aug. 06, 2014 Rise Set
Actual Time 6:20 AM MDT 8:13 PM MDT
Civil Twilight 5:51 AM MDT 8:41 PM MDT
Nautical Twilight 5:17 AM MDT 9:15 PM MDT
Astronomical Twilight 4:40 AM MDT 9:52 PM MDT
Moon 4:32 PM MDT (8/6) 1:58 AM MDT (8/6)
Length of Visible Light 14h 49m
Length of Day
13h 52m
Waxing Gibbous, 78% of the Moon is Illuminated
Aug 6
Waxing Gibbous
Aug 10
Full
Aug 17
Last Quarter
Aug 25
New
Sep 2
First Quarter

Hourly Weather History & Observations

Time (MDT) Temp. Dew Point Humidity Pressure Visibility Wind Dir Wind Speed Gust Speed Precip Events Conditions
12:53 AM 57.9 °F 45.0 °F 62% 30.02 in 10.0 mi North 4.6 mph - N/A   Clear
1:53 AM 57.9 °F 45.0 °F 62% 30.02 in 10.0 mi NW 3.5 mph - N/A   Clear
2:53 AM 53.1 °F 45.0 °F 74% 30.04 in 10.0 mi Calm Calm - N/A   Clear
3:53 AM 53.1 °F 44.1 °F 71% 30.04 in 10.0 mi East 3.5 mph - N/A   Clear
4:53 AM 51.1 °F 44.1 °F 77% 30.06 in 10.0 mi NNE 5.8 mph - N/A   Clear
5:53 AM 48.9 °F 45.0 °F 86% 30.06 in 10.0 mi Calm Calm - N/A   Clear
6:53 AM 51.1 °F 44.1 °F 77% 30.07 in 10.0 mi Calm Calm - N/A   Clear
7:53 AM 57.0 °F 45.0 °F 64% 30.08 in 10.0 mi Calm Calm - N/A   Clear
8:53 AM 66.0 °F 42.1 °F 42% 30.07 in 10.0 mi Calm Calm - N/A   Clear
9:53 AM 71.1 °F 45.0 °F 39% 30.06 in 10.0 mi Variable 3.5 mph - N/A   Clear
11:53 AM 80.1 °F 36.0 °F 20% 30.03 in 10.0 mi WSW 8.1 mph - N/A   Clear
1:53 PM 84.0 °F 33.1 °F 16% 29.99 in 10.0 mi West 11.5 mph 23.0 mph N/A   Clear
2:53 PM 82.9 °F 36.0 °F 19% 30.00 in 10.0 mi WSW 8.1 mph - N/A   Clear
3:53 PM 82.9 °F 33.1 °F 17% 29.98 in 10.0 mi North - - N/A   Clear
4:53 PM 84.9 °F 30.0 °F 14% 29.96 in 10.0 mi Variable 5.8 mph 17.3 mph N/A   Partly Cloudy
5:53 PM 82.9 °F 28.0 °F 14% 29.96 in 10.0 mi SE 6.9 mph - N/A   Clear
6:53 PM 82.0 °F 33.1 °F 17% 29.94 in 10.0 mi WSW 12.7 mph - N/A   Clear
7:53 PM 77.0 °F 37.0 °F 24% 29.95 in 10.0 mi WSW 5.8 mph - N/A   Clear
8:53 PM 73.0 °F 37.9 °F 28% 29.93 in 10.0 mi South 3.5 mph - N/A   Clear
9:53 PM 68.0 °F 43.0 °F 40% 29.95 in 10.0 mi North 10.4 mph - N/A   Clear
10:53 PM 64.9 °F 42.1 °F 43% 29.95 in 10.0 mi North 5.8 mph - N/A   Clear
11:53 PM 63.0 °F 42.1 °F 46% 29.94 in 10.0 mi NNW 5.8 mph - N/A   Partly Cloudy